VE7GEL Weather Reports


time (UTC)temp
C
wind
direction
speed
KPH
gust
KPH
rain 1hr
cm
rain 24hr
cm
rain mn
cm
humidity
%
barometer
mb
20260506121832 11 274 0.0 3.2 0.00 0.00 0.00 91 1017.0
20260506120330 11 0 0.0 4.8 0.00 0.00 0.00 91 1016.8
20260506120002 11 0 1.6 4.8 0.00 0.00 0.00 91 1017.1
20260506114828 11 196 1.6 4.8 0.00 0.00 0.00 90 1016.7
20260506114503 11 226 1.6 4.8 0.00 0.00 0.00 90 1017.0
20260506113328 11 175 1.6 6.4 0.00 0.00 0.00 90 1016.4
20260506111829 11 0 3.2 9.7 0.00 0.00 0.00 90 1016.3
20260506111502 11 215 3.2 9.7 0.00 0.00 0.00 90 1016.6
20260506110325 11 206 3.2 8.0 0.00 0.00 0.00 90 1016.1
20260506104827 11 144 3.2 9.7 0.00 0.00 0.00 90 1016.0
20260506103327 11 217 4.8 9.7 0.00 0.00 0.00 89 1015.8
20260506101823 11 200 4.8 9.7 0.00 0.00 0.00 89 1015.7
20260506101502 11 189 4.8 9.7 0.00 0.00 0.00 89 1016.0
20260506100323 11 117 4.8 9.7 0.00 0.00 0.00 89 1015.4
20260506094820 11 174 3.2 9.7 0.00 0.00 0.00 88 1015.3
20260506094503 11 238 3.2 6.4 0.00 0.00 0.00 88 1015.6
20260506093321 11 17 1.6 6.4 0.00 0.00 0.00 88 1015.2
20260506093002 11 29 1.6 6.4 0.00 0.00 0.00 89 1015.5
20260506091820 11 307 3.2 8.0 0.00 0.00 0.00 89 1015.2
20260506090320 11 266 3.2 9.7 0.00 0.00 0.00 88 1015.1
20260506084816 11 166 3.2 9.7 0.00 0.00 0.00 86 1015.1
20260506084502 12 191 3.2 9.7 0.00 0.00 0.00 86 1015.4
20260506083316 12 211 3.2 8.0 0.00 0.00 0.00 85 1015.1
20260506081816 12 226 1.6 6.4 0.00 0.00 0.00 86 1015.0
20260506081502 12 293 1.6 4.8 0.00 0.00 0.00 86 1015.3
20260506080317 12 290 1.6 6.4 0.00 0.00 0.00 87 1014.9
20260506073317 12 0 1.6 4.8 0.00 0.00 0.00 85 1014.7
20260506071817 12 192 0.0 3.2 0.00 0.00 0.00 85 1014.6
20260506071502 12 295 0.0 3.2 0.00 0.00 0.00 85 1014.9
20260506070316 12 0 0.0 4.8 0.00 0.00 0.00 85 1014.6
20260506061814 12 342 1.6 6.4 0.00 0.00 0.00 84 1014.2
20260506060314 13 158 3.2 8.0 0.00 0.00 0.00 81 1014.0
20260506050309 14 217 3.2 9.7 0.00 0.00 0.00 73 1013.8
20260506044811 14 276 3.2 9.7 0.00 0.00 0.00 72 1013.9
20260506044502 14 332 3.2 9.7 0.00 0.00 0.00 72 1014.1
20260506043311 15 108 3.2 11.3 0.00 0.00 0.00 73 1013.6
20260506041811 15 227 3.2 11.3 0.00 0.00 0.00 74 1013.6
20260506041538 15 0 3.2 11.3 0.00 0.00 0.00 73 1013.9
20260506041503 15 0 3.2 11.3 0.00 0.00 0.00 73 1013.9
20260506040309 15 265 3.2 11.3 0.00 0.00 0.00 71 1013.5
20260506040003 15 198 3.2 11.3 0.00 0.00 0.00 72 1013.7
20260506034806 15 21 3.2 9.7 0.00 0.00 0.00 72 1013.2
20260506034502 15 73 3.2 9.7 0.00 0.00 0.00 72 1013.5
20260506033302 15 257 4.8 11.3 0.00 0.00 0.00 73 1013.1
20260506033002 15 56 3.2 11.3 0.00 0.00 0.00 72 1013.4
20260506031804 16 307 3.2 9.7 0.00 0.00 0.00 68 1013.1
20260506031502 16 184 3.2 9.7 0.00 0.00 0.00 68 1013.3
20260506030300 16 167 3.2 9.7 0.00 0.00 0.00 67 1013.1
20260506030002 16 112 3.2 9.7 0.00 0.00 0.00 67 1013.4
20260506024800 16 171 3.2 11.3 0.00 0.00 0.00 69 1013.0
20260506023258 17 328 3.2 11.3 0.00 0.00 0.00 69 1013.0
20260506023002 17 33 3.2 11.3 0.00 0.00 0.00 68 1013.3
20260506021758 18 266 4.8 11.3 0.00 0.00 0.00 66 1013.1
20260506021502 18 311 4.8 11.3 0.00 0.00 0.00 65 1013.5
20260506020255 18 19 3.2 9.7 0.00 0.00 0.00 65 1013.1
20260506014758 18 270 3.2 11.3 0.00 0.00 0.00 64 1013.1
20260506014502 18 259 3.2 11.3 0.00 0.00 0.00 63 1013.5
20260506013255 18 20 4.8 11.3 0.00 0.00 0.00 63 1013.3
20260506013002 18 262 4.8 11.3 0.00 0.00 0.00 63 1013.5
20260506011756 18 312 3.2 11.3 0.00 0.00 0.00 63 1013.3
20260506010254 18 179 4.8 16.1 0.00 0.00 0.00 64 1013.2
20260506004755 18 213 4.8 11.3 0.00 0.00 0.00 62 1013.3
20260506004503 18 149 4.8 11.3 0.00 0.00 0.00 62 1013.6
20260506003253 19 314 4.8 11.3 0.00 0.00 0.00 61 1013.4
20260506001755 18 281 3.2 11.3 0.00 0.00 0.00 61 1013.6
20260506000255 19 119 4.8 16.1 0.00 0.00 0.00 60 1013.8
20260505234752 18 139 4.8 12.9 0.00 0.00 0.00 60 1013.9
20260505234502 18 0 4.8 12.9 0.00 0.00 0.00 61 1014.1
20260505233251 18 203 4.8 12.9 0.00 0.00 0.00 60 1014.0
20260505231753 18 319 4.8 9.7 0.00 0.00 0.00 60 1014.1
20260505231503 18 241 4.8 9.7 0.00 0.00 0.00 62 1014.5
20260505230249 18 209 3.2 9.7 0.00 0.00 0.00 67 1014.4
20260505230002 18 232 3.2 9.7 0.00 0.00 0.00 66 1014.8
20260505224749 17 300 3.2 8.0 0.00 0.00 0.00 70 1014.5
20260505223250 16 346 3.2 9.7 0.00 0.00 0.00 74 1014.6
20260505221750 15 1 3.2 12.9 0.00 0.00 0.00 76 1014.9
20260505221503 15 189 4.8 12.9 0.00 0.00 0.00 76 1015.3
20260505220247 15 183 3.2 12.9 0.00 0.00 0.00 78 1014.8
20260505214748 14 184 4.8 12.9 0.00 0.00 0.00 79 1014.8
20260505214503 14 287 4.8 12.9 0.00 0.00 0.00 80 1015.1
20260505213248 13 214 4.8 11.3 0.00 0.00 0.00 81 1015.0
20260505213003 13 269 4.8 9.7 0.00 0.00 0.00 82 1015.2
20260505211748 13 184 4.8 14.5 0.00 0.00 0.00 84 1014.9
20260505211502 13 9 4.8 14.5 0.00 0.00 0.00 83 1015.4
20260505210245 13 214 4.8 11.3 0.00 0.00 0.00 85 1015.0
20260505210003 13 191 4.8 9.7 0.00 0.00 0.00 84 1015.4
20260505204746 12 232 4.8 14.5 0.00 0.00 0.00 86 1015.1
20260505204502 12 229 4.8 11.3 0.00 0.00 0.00 86 1015.5
20260505203243 12 181 4.8 12.9 0.00 0.00 0.00 86 1015.3
20260505203002 12 189 4.8 12.9 0.00 0.00 0.00 87 1015.6
20260505201743 12 274 6.4 12.9 0.00 0.00 0.00 88 1015.4
20260505201503 12 302 4.8 12.9 0.00 0.00 0.00 87 1015.7
20260505200245 12 276 4.8 12.9 0.00 0.00 0.00 87 1015.3
20260505200002 12 260 4.8 11.3 0.00 0.00 0.00 88 1015.6
20260505194740 12 201 6.4 14.5 0.00 0.00 0.00 88 1015.3
20260505194502 12 189 6.4 14.5 0.00 0.00 0.00 87 1015.6
20260505193240 12 238 6.4 14.5 0.00 0.00 0.00 87 1015.3
20260505191740 12 148 6.4 14.5 0.00 0.00 0.00 87 1015.4
20260505191502 12 199 6.4 12.9 0.00 0.00 0.00 87 1015.7
20260505190239 12 181 4.8 12.9 0.00 0.00 0.00 88 1015.4
20260505190003 12 187 4.8 12.9 0.00 0.00 0.00 88 1015.8
20260505184738 12 210 6.4 14.5 0.00 0.00 0.00 89 1015.4
20260505183240 12 234 4.8 9.7 0.00 0.00 0.00 85 1015.3
20260505181739 12 213 4.8 12.9 0.00 0.00 0.00 87 1015.2
20260505181503 12 55 4.8 12.9 0.00 0.00 0.00 87 1015.6
20260505180237 12 279 4.8 12.9 0.00 0.00 0.00 88 1015.1
20260505180002 12 274 4.8 12.9 0.00 0.00 0.00 88 1015.5
20260505174735 12 219 4.8 12.9 0.00 0.00 0.00 89 1015.1
20260505174503 12 245 4.8 12.9 0.00 0.00 0.00 89 1015.4
20260505173232 12 162 4.8 11.3 0.00 0.00 0.00 89 1015.0
20260505171730 12 212 4.8 9.7 0.00 0.00 0.00 89 1014.9
20260505171502 12 264 3.2 9.7 0.00 0.00 0.00 89 1015.2
20260505170231 11 243 4.8 11.3 0.00 0.00 0.00 89 1014.8
20260505170002 11 158 4.8 11.3 0.00 0.00 0.00 89 1015.2
20260505164732 11 223 4.8 12.9 0.00 0.00 0.00 90 1014.9
20260505164503 11 236 4.8 12.9 0.00 0.00 0.00 90 1015.1
20260505163231 11 174 4.8 11.3 0.00 0.00 0.00 90 1014.7
20260505163002 11 201 4.8 11.3 0.00 0.00 0.00 90 1015.1
20260505161732 11 228 4.8 9.7 0.00 0.00 0.00 90 1014.6
20260505161503 11 234 4.8 9.7 0.00 0.00 0.00 90 1015.0
20260505160232 11 266 3.2 8.0 0.00 0.00 0.00 90 1014.7
20260505153226 12 261 3.2 9.7 0.00 0.00 0.00 87 1014.3
20260505151728 12 263 3.2 9.7 0.00 0.00 0.00 87 1014.3
20260505150226 12 271 3.2 9.7 0.00 0.00 0.00 88 1014.1
20260505140222 11 249 3.2 9.7 0.00 0.00 0.00 90 1013.2
20260505130223 12 39 3.2 11.3 0.00 0.00 0.00 85 1012.5
20260505124720 12 259 3.2 9.7 0.00 0.00 0.00 84 1012.3
20260505124502 12 290 3.2 9.7 0.00 0.00 0.00 83 1012.6
20260505123220 12 219 3.2 9.7 0.00 0.00 0.00 82 1012.2
20260505123003 12 356 3.2 9.7 0.00 0.00 0.00 82 1012.5